COSMOS 1085

Satellite information

Favourite Embed

Satellite Type and Status

PAYLOADIN ORBIT

Key statistics

Satellite COSMOS 1085 at a glance.

Uptime

16918

Days in orbit

Revolutions

≈ 12.5

Per day

Orbit

LEO

Low Earth Orbit

Inclination

74.0

Latest

Satellite identification and parameters

Extended collection of information and parameters for COSMOS 1085.

Object identification

Identified? True

Debris? False

Object name: COSMOS 1085

International designator: 1979-024E

Object number (NORAD): 11300

Object ID (CCSDS): 11300

Country: COMMONWEALTH OF INDEPENDENT STATES (CIS)

Current information (Y/N): Y

RCS size: MEDIUM

Orbital parameters

Period: 115.636 minutes

Inclination: 74.0337 deg

SMA: 7862.406 km

Apoapsis: 1503.953 km

Periapsis: 1464.589 km

RAAN: 270.6444 deg

Eccentricy: 0.0025033

Argument of periapsis: 255.532 deg

Mean anomaly: 224.7701 deg

Mean motion: 12.4528722 rev/day

Mean motion (dot): 0.00000001 rev/day2

B* drag term: 0.00012004 1/REarth

Two-line elements (TLE)

Creation date: July 9, 2025, 2:22 a.m.

Reference frame: TEME

Reference center: EARTH

Epoch: July 8, 2025, 5:29 p.m. UTC

TLE line 0: 0 COSMOS 1085

TLE line 1: 1 11300U 79024E 25189.72870964 .00000001 00000-0 12004-3 0 9996

TLE line 2: 2 11300 74.0337 270.6444 0025033 255.5320 224.7701 12.45287220105533

Live tracking on map

Real-time ground track for satellite COSMOS 1085.

In-orbit conjunctions

There are no conjunctions computed for COSMOS 1085, at the moment. Check back to stay up to date, as we update our databases every day.

Go to all conjunctions

Associated space launch

Military communications satellites

COSMOS 1085 was lifted into orbit during the mission ‘Kosmos-3M | Strela-1M 169-176’, on board a Kosmos-3M space rocket.

The launch took place on March 15, 1979, 2:58 a.m. from 132/2.

For more information about the launch, click the button.

Launch to space Kosmos-3M | Strela-1M 169-176
Kosmos-3M | Strela-1M 169-176

Agency: N/A

Status: Launch Successful

Launch date: March 15, 1979, 2:58 a.m. UTC

Rocket: Kosmos-3M

Launch pad: 132/2

Location: Plesetsk Cosmodrome, Russian Federation

...

Latest news about this satellite

There are no fresh news available about this satellite. Check back as we update our databases every day.


Newsletter sign-up

Weekly statistics, charts and insights to help you stay on top of the space industry.